Regional Weather Roundup
Issued by NWS

Home | Current Version | Previous Version | Graphics & Text | Print | Product List | Glossary On
Versions: 1 2 3 4 5 6 7 8 9 10 11 12 13 14 15 16 17 18 19 20 21 22 23 24 25 26 27 28 29 30 31 32 33 34 35 36 37 38 39 40 41 42 43 44 45 46 47 48 49 50
000
ASUS43 KOAX 291510
RWRNE

WEATHER ROUNDUP FOR NEBRASKA
NATIONAL WEATHER SERVICE OMAHA NE
900 AM CST THU JAN 29 2015

NOTES: SATELLITE DATA IS BEING USED TO AUGMENT CLOUD COVER ABOVE
       12000 FEET.
       "FAIR" INDICATES FEW OR NO CLOUDS BELOW 12,000 FEET WITH NO
       SIGNIFICANT WEATHER AND/OR OBSTRUCTIONS TO VISIBILITY.

  * THESE STATIONS DO NOT REPORT WEATHER SUCH AS RAIN...SNOW OR FOG.

NEZ001>004-019>022-054>056-291600-
NEBRASKA PANHANDLE

CITY           SKY/WX    TMP DP  RH WIND       PRES   REMARKS
SCOTTSBLUFF    CLEAR     30  25  81 W10       30.48R WCI  21
ALLIANCE       CLEAR     20  18  92 W5        30.45R WCI  13
CHADRON        CLEAR     27  23  85 W5        30.50R WCI  22
KIMBALL        CLEAR     31  22  69 W13       30.45R WCI  21
SIDNEY         CLEAR     31  23  72 VRB7      30.46R WCI  24
$$

NEZ057>060-069>072-079>082-291600-
SOUTHWEST NEBRASKA

CITY           SKY/WX    TMP DP  RH WIND       PRES   REMARKS
NORTH PLATTE   CLEAR     26  22  84 NW7       30.46R WCI  18
IMPERIAL         N/A     31  24  75 NW10      30.48R WCI  22
LEXINGTON      CLOUDY    37  25  62 N24       30.43R WCI  25
MCCOOK         SUNNY     30  25  81 W12       30.47R WCI  20
OGALLALA       CLEAR     29  26  85 CALM      30.48R
$$

NEZ005>010-023>029-035>040-094-291600-
NORTH CENTRAL NEBRASKA

CITY           SKY/WX    TMP DP  RH WIND       PRES   REMARKS
VALENTINE      CLOUDY    34  22  61 NW20G30   30.44R WCI  23
AINSWORTH      CLOUDY    34  24  67 NW20G25   30.43R WCI  23
BROKEN BOW     CLOUDY    36  25  64 N17G25    30.42R WCI  26
O`NEILL        CLOUDY    36  28  73 NW21      30.40R WCI  24
ORD            CLOUDY    35  24  64 N23G32    30.40R WCI  23
THEDFORD       CLOUDY    34  25  68 N21G29    30.44R WCI  23
$$

NEZ041-046>049-061>064-073>077-083>087-291600-
SOUTH CENTRAL NEBRASKA

CITY           SKY/WX    TMP DP  RH WIND       PRES   REMARKS
GRAND ISLAND   PTSUNNY   36  25  64 NW17G24   30.40R WCI  26
AURORA         CLOUDY    37  26  66 NW25G31   30.39R WCI  25
HASTINGS       PTSUNNY   36  24  62 N22G33    30.40R WCI  25
HEBRON         CLOUDY    39  26  61 NW16      30.38R WCI  30
HOLDREGE       CLOUDY    36  23  59 N21G31    30.42R WCI  25
KEARNEY *      CLOUDY    36  23  60 N20       30.42R WCI  25
YORK           CLOUDY    37  27  65 N18       30.37R WCI  27
$$

NEZ011>018-030>034-042>045-291600-
NORTHEAST NEBRASKA

CITY           SKY/WX    TMP DP  RH WIND       PRES   REMARKS
NORFOLK        CLOUDY    36  27  69 NW29G35   30.36R WCI  23
ALBION         CLOUDY    36  26  66 N22G29    30.38R WCI  25
BLAIR          CLOUDY    37  28  72 NW23G30   30.29R WCI  25
COLUMBUS *     CLOUDY    36  25  64 N23G33    30.37R WCI  24
FREMONT        CLOUDY    37  29  72 NW18G32   30.33R WCI  27
TEKAMAH        CLOUDY    36  27  69 NW28G40   30.32  WCI  23
WAYNE          CLOUDY    34  28  77 N25G32    30.36R WCI  21
$$

NEZ050>053-065>068-078-088>093-291600-
SOUTHEAST NEBRASKA

CITY           SKY/WX    TMP DP  RH WIND       PRES   REMARKS
LINCOLN        CLOUDY    39  28  64 N22G36    30.35R WCI  29
OMAHA EPPLEY   CLOUDY    36  28  73 N21G31    30.30R WCI  25
BEATRICE       CLOUDY    37  30  73 N18       30.35R WCI  27
FALLS CITY     CLOUDY    39  26  59 N22G33    30.29R WCI  29
NEBRASKA CITY  CLOUDY    37  25  62 N24G33    30.29R WCI  25
PLATTSMOUTH    CLOUDY    36  26  68 NW22G33   30.30R WCI  24
$$

NEZ044-045-051>053-067-291600-
OMAHA AREA

CITY           SKY/WX    TMP DP  RH WIND       PRES   REMARKS
OMAHA EPPLEY   CLOUDY    36  28  73 N21G31    30.30R WCI  25
BLAIR          CLOUDY    37  28  72 NW23G30   30.29R WCI  25
FREMONT        CLOUDY    37  29  72 NW18G32   30.33R WCI  27
MILLARD        CLOUDY    37  29  71 NW17G25   30.31R WCI  28
OFFUTT AFB     CLOUDY    37  27  67 N18G39    30.30R WCI  27
PLATTSMOUTH    CLOUDY    36  26  68 NW22G33   30.30R WCI  24
WAHOO          CLOUDY    37  28  69 NW25G32   30.33R WCI  25
$$


USA.gov is the U.S. government's official web portal to all federal, state and local government web resources and services.